Location: Lecco
(45.8566°N, 9.3977°E)
Time: 08:28:25
(UTC+02:00)

Altair - Pass Details

Date: 19 August 2020
Orbit: 1501 x 1682 km, 47.2° (Epoch: 25 September)

Event Time Altitude Azimuth Distance (km) Brightness Sun altitude
Rises 01:14:22 0° 222° (SW) 4,874 - -31.4°
Reaches altitude 10° 01:17:38 10° 217° (SW) 3,869 - -31.4°
Maximum altitude 01:27:03 53° 145° (SE) 1,906 - -31.5°
Exits shadow 01:27:49 52° 130° (SE) 1,922 7.7 -31.4°
Drops below altitude 10° 01:36:08 10° 72° (ENE) 3,742 9.7 -31.4°
Sets 01:39:14 0° 68° (ENE) 4,705 10.4 -31.4°
